Location: Unspecified
(0.0000°N, 0.0000°E)
Time: 17:22:53
(UTC+00:00)

STARLINK 1042 - Pass Details

Date: 23 January 2020
Orbit: 549 x 551 km, 53.0° (Epoch: 23 January)

Event Time Altitude Azimuth Distance (km) Brightness Sun altitude
Exits shadow 04:45:34 53° 257° (WSW) 678 3.7 -20.2°
Maximum altitude 04:46:15 63° 303° (WNW) 612 3.5 -20.1°
Drops below altitude 10° 04:50:20 10° 25° (NNE) 1,809 6.3 -19.1°
Sets 04:52:34 0° 29° (NNE) 2,699 7.3 -18.6°
